Tracking 29594 objects as of 20-Sep-2024
HD Live streaming from Space Station
objects crossing your sky now

SIRIO

Track SIRIO now!
SIRIO is classified as:


NORAD ID: 10294
Int'l Code: 1977-080A
Perigee: 35,759.1 km
Apogee: 35,829.1 km
Inclination: 8.7 °
Period: 1,436.1 minutes
Semi major axis: 42165 km
RCS: 0.14 m2 (medium)
Launch date: August 25, 1977
Source: Italy (IT)
Launch site: AIR FORCE EASTERN TEST RANGE (AFETR)
Your satellite tracking list
Your tracking list is empty




NASA's NSSDC Master Catalog

Two Line Element Set (TLE):
1 10294U 77080A   24264.11802559 -.00000105  00000-0  00000-0 0  9994
2 10294   8.6517 304.2737 0008300 159.8472  12.4764  1.00270647111552
Source of the keplerian elements: AFSPC